CW3518 Weather Reports


time (UTC)temp
C
wind
direction
speed
KPH
gust
KPH
rain 1hr
cm
rain 24hr
cm
rain mn
cm
humidity
%
barometer
mb
20211205112511 12 202 16.1 16.1 0.00 0.00 0.00 78 1014.7
20211205112011 12 205 12.9 16.1 0.00 0.00 0.00 79 1014.7
20211205111541 12 205 12.9 16.1 0.00 0.00 0.00 79 1014.8
20211205111010 12 203 12.9 16.1 0.00 0.00 0.00 79 1014.8
20211205110511 12 199 11.3 14.5 0.00 0.00 0.00 80 1014.7
20211205110011 12 198 11.3 14.5 0.00 0.00 0.00 80 1014.8
20211205105511 12 200 14.5 14.5 0.00 0.00 0.00 80 1014.8
20211205105011 12 199 12.9 12.9 0.00 0.00 0.00 80 1014.9
20211205104511 11 195 11.3 12.9 0.00 0.00 0.00 81 1015.0
20211205104010 11 195 11.3 12.9 0.00 0.00 0.00 81 1015.1
20211205103511 11 199 11.3 12.9 0.00 0.00 0.00 80 1015.1
20211205103011 11 193 11.3 14.5 0.00 0.00 0.00 79 1015.1
20211205102511 11 190 11.3 14.5 0.00 0.00 0.00 79 1015.2
20211205102010 11 183 8.0 14.5 0.00 0.00 0.00 80 1015.2
20211205101511 11 167 9.7 12.9 0.00 0.00 0.00 83 1015.1
20211205101011 11 155 12.9 12.9 0.00 0.05 0.00 83 1015.2
20211205100510 11 217 4.8 9.7 0.00 0.10 0.00 83 1015.1
20211205100010 11 212 4.8 9.7 0.00 0.10 0.00 84 1015.1
20211205095511 11 195 8.0 9.7 0.00 0.10 0.00 84 1015.3
20211205095011 10 218 4.8 9.7 0.00 0.10 0.00 84 1015.3
20211205094511 10 235 4.8 9.7 0.00 0.10 0.00 85 1015.3
20211205094010 10 198 8.0 9.7 0.00 0.10 0.00 86 1015.3
20211205093511 10 198 8.0 8.0 0.00 0.10 0.00 85 1015.4
20211205093010 10 254 4.8 6.4 0.00 0.10 0.00 85 1015.3
20211205092511 10 223 4.8 6.4 0.00 0.10 0.00 85 1015.5
20211205092011 10 274 4.8 8.0 0.00 0.10 0.00 85 1015.5
20211205091511 10 272 8.0 9.7 0.00 0.10 0.00 86 1015.5
20211205091011 10 258 8.0 9.7 0.00 0.10 0.00 86 1015.5
20211205090510 10 247 8.0 8.0 0.00 0.10 0.00 86 1015.6
20211205090011 10 235 8.0 8.0 0.00 0.10 0.00 86 1015.7
20211205085511 10 228 6.4 9.7 0.00 0.10 0.00 85 1015.7
20211205085011 10 228 8.0 9.7 0.00 0.10 0.00 85 1015.7
20211205084511 10 219 8.0 9.7 0.00 0.10 0.00 84 1015.7
20211205084011 10 216 8.0 8.0 0.00 0.10 0.00 84 1015.8
20211205083510 11 192 8.0 8.0 0.00 0.10 0.00 84 1015.9
20211205083011 11 218 3.2 8.0 0.00 0.10 0.00 84 1015.8
20211205082510 11 146 6.4 8.0 0.00 0.10 0.00 83 1015.8
20211205082011 11 142 3.2 8.0 0.00 0.10 0.00 83 1015.8
20211205081511 11 129 6.4 8.0 0.00 0.10 0.00 82 1016.0
20211205081011 11 55 3.2 3.2 0.00 0.10 0.00 82 1016.0
20211205080511 11 51 3.2 3.2 0.00 0.10 0.00 82 1016.0
20211205080011 11 2 1.6 3.2 0.00 0.10 0.00 83 1016.0
20211205075511 11 12 1.6 3.2 0.00 0.10 0.00 82 1016.0
20211205075011 11 318 1.6 3.2 0.00 0.10 0.00 83 1016.1
20211205074511 11 271 1.6 4.8 0.00 0.10 0.00 84 1016.2
20211205074011 11 242 3.2 4.8 0.00 0.10 0.00 84 1016.2
20211205073511 11 201 4.8 4.8 0.00 0.10 0.00 84 1016.2
20211205073011 11 204 1.6 3.2 0.00 0.10 0.00 83 1016.3
20211205072511 11 172 3.2 4.8 0.00 0.10 0.00 83 1016.4
20211205072011 11 172 3.2 8.0 0.00 0.10 0.00 84 1016.4
20211205071511 11 168 4.8 8.0 0.00 0.10 0.00 84 1016.5
20211205071011 11 161 8.0 8.0 0.00 0.10 0.00 84 1016.5
20211205070512 11 160 6.4 6.4 0.00 0.10 0.00 84 1016.5
20211205070011 11 159 3.2 3.2 0.00 0.10 0.00 83 1016.6
20211205065511 11 176 3.2 4.8 0.00 0.10 0.00 83 1016.6
20211205065011 11 162 3.2 4.8 0.00 0.10 0.00 82 1016.6
20211205064511 11 229 3.2 6.4 0.00 0.10 0.00 82 1016.7
20211205064010 11 223 4.8 6.4 0.00 0.10 0.00 82 1016.8
20211205063511 11 212 3.2 6.4 0.00 0.10 0.00 82 1016.7
20211205063011 11 171 4.8 6.4 0.00 0.10 0.00 81 1016.8
20211205062511 11 260 3.2 8.0 0.00 0.10 0.00 80 1016.8
20211205062011 11 263 4.8 8.0 0.00 0.10 0.00 80 1016.9
20211205061511 11 282 4.8 9.7 0.00 0.10 0.00 81 1016.9
20211205061011 11 297 4.8 9.7 0.00 0.10 0.00 81 1016.9
20211205060511 11 283 9.7 9.7 0.00 0.10 0.00 81 1016.9
20211205060012 11 276 8.0 9.7 0.00 0.10 0.00 82 1017.0
20211205055511 11 270 6.4 6.4 0.00 0.10 0.10 82 1017.1
20211205055011 11 240 4.8 8.0 0.00 0.10 0.10 81 1017.1
20211205054511 11 260 4.8 8.0 0.00 0.10 0.10 81 1017.2
20211205054011 11 299 8.0 8.0 0.00 0.10 0.10 81 1017.2
20211205053511 11 311 6.4 8.0 0.00 0.10 0.10 81 1017.1
20211205053011 11 303 8.0 11.3 0.00 0.10 0.10 81 1017.2
20211205052511 11 309 11.3 11.3 0.00 0.10 0.10 81 1017.3
20211205052011 11 317 9.7 9.7 0.00 0.10 0.10 81 1017.4
20211205051511 11 312 8.0 9.7 0.00 0.10 0.10 81 1017.4
20211205051011 12 302 8.0 11.3 0.00 0.10 0.10 80 1017.4
20211205050511 12 296 8.0 11.3 0.00 0.10 0.10 80 1017.4
20211205050011 12 304 11.3 12.9 0.00 0.10 0.10 79 1017.4
20211205045511 12 288 11.3 12.9 0.00 0.10 0.10 79 1017.4
20211205045011 12 281 8.0 12.9 0.00 0.10 0.10 78 1017.5
20211205044511 12 284 11.3 12.9 0.00 0.10 0.10 78 1017.5
20211205044011 12 285 11.3 11.3 0.00 0.10 0.10 77 1017.5
20211205043511 13 282 8.0 12.9 0.00 0.10 0.10 77 1017.4
20211205043011 13 288 9.7 14.5 0.00 0.10 0.10 77 1017.5
20211205042511 13 292 11.3 14.5 0.00 0.10 0.10 76 1017.6
20211205042011 13 285 8.0 14.5 0.00 0.10 0.10 76 1017.7
20211205041511 13 286 11.3 14.5 0.00 0.10 0.10 76 1017.7
20211205041011 13 292 11.3 16.1 0.00 0.10 0.10 76 1017.7
20211205040511 13 290 12.9 16.1 0.00 0.10 0.10 76 1017.7
20211205040011 13 292 12.9 14.5 0.00 0.10 0.10 76 1017.8
20211205035511 13 299 14.5 17.7 0.00 0.10 0.10 76 1017.8
20211205035011 13 297 8.0 17.7 0.00 0.10 0.10 77 1017.8
20211205034511 13 305 11.3 16.1 0.00 0.10 0.10 76 1017.7
20211205034011 13 313 12.9 16.1 0.00 0.10 0.10 76 1017.7
20211205033511 13 297 11.3 16.1 0.00 0.10 0.10 74 1017.6
20211205033011 14 306 12.9 17.7 0.00 0.10 0.10 73 1017.6
20211205032511 14 300 11.3 17.7 0.00 0.10 0.10 72 1017.7
20211205032011 14 298 11.3 17.7 0.00 0.10 0.10 70 1017.7
20211205031511 15 301 12.9 17.7 0.00 0.10 0.10 69 1017.6
20211205031011 15 285 12.9 20.9 0.00 0.10 0.10 68 1017.7
20211205030511 15 287 12.9 20.9 0.00 0.10 0.10 69 1017.6
20211205030011 15 284 17.7 20.9 0.00 0.10 0.10 69 1017.6
20211205025511 15 291 19.3 20.9 0.00 0.10 0.10 69 1017.6
20211205025011 15 276 17.7 20.9 0.00 0.10 0.10 69 1017.6
20211205024511 15 281 12.9 17.7 0.00 0.10 0.10 72 1017.6
20211205024011 15 261 8.0 17.7 0.00 0.10 0.10 73 1017.7
20211205023511 15 291 11.3 12.9 0.00 0.10 0.10 73 1017.7
20211205023011 15 281 9.7 16.1 0.00 0.10 0.10 73 1017.7
20211205022511 15 289 9.7 19.3 0.00 0.10 0.10 73 1017.7
20211205022011 15 287 11.3 19.3 0.00 0.10 0.10 72 1017.6
20211205021511 15 279 11.3 19.3 0.00 0.10 0.10 72 1017.6
20211205021011 15 290 9.7 16.1 0.00 0.10 0.10 73 1017.6
20211205020511 15 280 11.3 14.5 0.00 0.10 0.10 73 1017.5
20211205020011 15 278 9.7 14.5 0.00 0.10 0.10 73 1017.5
20211205015511 15 278 12.9 14.5 0.00 0.10 0.10 73 1017.5
20211205015012 15 269 9.7 14.5 0.00 0.10 0.10 72 1017.5
20211205014511 15 279 12.9 14.5 0.00 0.10 0.10 72 1017.4
20211205014011 15 282 11.3 12.9 0.00 0.10 0.10 72 1017.4
20211205013511 15 273 9.7 11.3 0.00 0.10 0.10 72 1017.5
20211205013011 15 272 8.0 11.3 0.00 0.10 0.10 72 1017.4
20211205012511 15 274 8.0 12.9 0.00 0.10 0.10 72 1017.4
20211205012011 15 268 9.7 12.9 0.00 0.10 0.10 72 1017.4
20211205011511 15 269 9.7 12.9 0.00 0.10 0.10 71 1017.4
20211205011011 15 275 11.3 14.5 0.00 0.10 0.10 70 1017.3
20211205010511 15 289 9.7 16.1 0.00 0.10 0.10 70 1017.2
20211205010011 15 284 16.1 16.1 0.00 0.10 0.10 70 1017.2
20211205005511 15 272 11.3 14.5 0.00 0.10 0.10 69 1017.2
20211205005011 16 269 8.0 14.5 0.00 0.10 0.10 69 1017.2
20211205004511 16 262 9.7 14.5 0.00 0.10 0.10 68 1017.2
20211205004012 16 260 12.9 16.1 0.00 0.10 0.10 68 1017.1
20211205003511 16 269 9.7 16.1 0.00 0.10 0.10 67 1017.1
20211205003011 16 256 11.3 17.7 0.00 0.10 0.10 66 1017.1
20211205002511 16 261 14.5 17.7 0.00 0.10 0.10 65 1017.1
20211205002011 16 263 12.9 16.1 0.00 0.10 0.10 64 1017.1
20211205001511 17 259 12.9 16.1 0.00 0.10 0.10 64 1017.0
20211205001011 17 259 12.9 17.7 0.00 0.10 0.10 63 1016.9
20211205000541 17 267 17.7 17.7 0.00 0.10 0.10 62 1016.8
20211205000011 17 268 11.3 16.1 0.00 0.10 0.10 62 1016.9
20211204235511 17 262 14.5 16.1 0.00 0.10 0.10 61 1016.9
20211204235011 18 263 11.3 14.5 0.00 0.10 0.10 61 1016.8
20211204234511 18 265 11.3 14.5 0.00 0.10 0.10 60 1016.9
20211204234011 18 263 12.9 14.5 0.00 0.10 0.10 60 1016.9
20211204233512 18 257 11.3 16.1 0.00 0.10 0.10 61 1016.9
20211204233011 19 252 14.5 16.1 0.00 0.10 0.10 60 1016.8
20211204232512 20 239 12.9 17.7 0.00 0.10 0.10 59 1016.8
20211204232011 20 237 14.5 17.7 0.00 0.10 0.10 60 1016.6
20211204231512 21 211 12.9 17.7 0.00 0.10 0.10 63 1016.5
20211204231011 21 196 12.9 16.1 0.00 0.10 0.10 63 1016.5
20211204230511 21 195 12.9 16.1 0.00 0.10 0.10 62 1016.5
20211204230011 21 197 16.1 16.1 0.00 0.10 0.10 62 1016.5
20211204225511 21 190 11.3 12.9 0.00 0.10 0.10 64 1016.5
20211204225011 21 196 9.7 11.3 0.00 0.10 0.10 64 1016.5
20211204224511 21 194 8.0 11.3 0.00 0.10 0.10 64 1016.5
20211204224011 21 179 9.7 14.5 0.00 0.10 0.10 64 1016.5
20211204223512 21 187 6.4 16.1 0.00 0.10 0.10 63 1016.4
20211204223041 21 177 12.9 17.7 0.00 0.10 0.10 62 1016.4
20211204222511 21 180 14.5 17.7 0.00 0.10 0.10 62 1016.3
20211204222011 21 193 14.5 17.7 0.00 0.10 0.10 63 1016.3
20211204221511 21 193 12.9 14.5 0.00 0.10 0.10 63 1016.3
20211204221011 21 187 9.7 16.1 0.00 0.10 0.10 64 1016.4
20211204220511 21 203 14.5 17.7 0.00 0.10 0.10 63 1016.4
20211204220011 21 206 12.9 17.7 0.00 0.10 0.10 61 1016.4
20211204215542 21 206 11.3 22.5 0.00 0.10 0.10 62 1016.4
20211204215011 22 201 14.5 22.5 0.00 0.10 0.10 61 1016.3
20211204214511 22 213 20.9 22.5 0.00 0.10 0.10 60 1016.3
20211204214011 22 187 19.3 22.5 0.00 0.10 0.10 60 1016.2
20211204213511 22 171 9.7 17.7 0.00 0.10 0.10 62 1016.3
20211204213011 22 188 8.0 17.7 0.00 0.10 0.10 62 1016.3
20211204212512 22 166 14.5 17.7 0.00 0.10 0.10 60 1016.2
20211204212012 22 197 14.5 19.3 0.00 0.10 0.10 62 1016.3
20211204211511 22 189 16.1 20.9 0.00 0.10 0.10 61 1016.2
20211204211012 22 204 16.1 20.9 0.00 0.10 0.10 62 1016.2
20211204210511 22 216 19.3 19.3 0.00 0.10 0.10 61 1016.2
20211204210011 22 201 12.9 17.7 0.00 0.10 0.10 60 1016.1
20211204205511 22 213 8.0 14.5 0.00 0.10 0.10 60 1016.1
20211204205011 22 210 11.3 14.5 0.00 0.10 0.10 60 1016.1
20211204204511 22 226 14.5 17.7 0.00 0.10 0.10 60 1016.1
20211204204011 22 161 16.1 20.9 0.00 0.10 0.10 60 1016.2
20211204203511 22 208 17.7 20.9 0.00 0.10 0.10 61 1016.2
20211204203011 22 190 14.5 17.7 0.00 0.10 0.10 62 1016.1
20211204202512 22 193 11.3 17.7 0.00 0.10 0.10 62 1016.1
20211204202011 22 205 11.3 14.5 0.00 0.10 0.10 63 1016.2
20211204201511 22 185 9.7 16.1 0.00 0.10 0.10 64 1016.2
20211204201011 22 238 11.3 16.1 0.00 0.10 0.10 63 1016.3
20211204200511 22 219 9.7 19.3 0.00 0.10 0.10 65 1016.3
20211204200011 22 231 14.5 19.3 0.00 0.10 0.10 65 1016.3
20211204195511 21 220 9.7 19.3 0.00 0.10 0.10 68 1016.3
20211204195011 21 131 3.2 19.3 0.00 0.10 0.10 69 1016.5
20211204194511 21 84 16.1 19.3 0.00 0.10 0.10 76 1016.4
20211204194011 21 71 11.3 14.5 0.00 0.10 0.10 75 1016.5
20211204193511 21 91 12.9 14.5 0.00 0.10 0.10 76 1016.6
20211204193011 21 114 11.3 16.1 0.00 0.10 0.10 75 1016.7
20211204192511 21 92 11.3 16.1 0.00 0.10 0.10 76 1016.7
20211204192012 21 108 11.3 17.7 0.00 0.10 0.10 76 1016.7
20211204191512 21 97 14.5 17.7 0.00 0.10 0.10 76 1016.7
20211204191011 21 113 11.3 17.7 0.00 0.10 0.10 76 1016.8
20211204190512 21 91 12.9 16.1 0.00 0.10 0.10 77 1016.9
20211204190011 20 99 14.5 16.1 0.00 0.10 0.10 77 1016.9
20211204185511 20 104 14.5 16.1 0.00 0.10 0.10 78 1017.0
20211204185011 20 77 11.3 17.7 0.00 0.10 0.10 79 1017.0
20211204184511 20 90 11.3 17.7 0.00 0.10 0.10 79 1017.0
20211204184012 20 86 14.5 14.5 0.00 0.10 0.10 78 1017.0
20211204183511 20 91 9.7 16.1 0.00 0.10 0.10 79 1017.1
20211204183012 20 93 11.3 17.7 0.00 0.10 0.10 79 1017.2
20211204182511 20 96 14.5 17.7 0.00 0.10 0.10 79 1017.2
20211204182011 20 84 14.5 17.7 0.00 0.10 0.10 81 1017.3
20211204181511 19 78 12.9 17.7 0.00 0.10 0.10 82 1017.4
20211204181011 19 78 11.3 12.9 0.00 0.10 0.10 82 1017.5
20211204180511 19 79 11.3 16.1 0.00 0.10 0.10 83 1017.6
20211204180011 18 104 14.5 17.7 0.00 0.10 0.10 83 1017.7
20211204175512 18 85 14.5 17.7 0.00 0.10 0.10 84 1017.8
20211204175011 18 97 16.1 19.3 0.00 0.10 0.10 84 1017.8
20211204174511 18 90 17.7 19.3 0.00 0.10 0.10 84 1017.9
20211204174012 18 99 16.1 19.3 0.00 0.10 0.10 84 1018.0
20211204173511 18 80 14.5 17.7 0.00 0.10 0.10 84 1018.1
20211204173011 18 100 17.7 17.7 0.00 0.10 0.10 84 1018.2
20211204172511 18 94 17.7 17.7 0.00 0.10 0.10 82 1018.2
20211204172012 19 84 12.9 17.7 0.00 0.10 0.10 81 1018.2
20211204171511 20 99 9.7 12.9 0.00 0.10 0.10 77 1018.2
20211204171012 20 161 9.7 12.9 0.00 0.10 0.10 74 1018.3
20211204170511 20 142 12.9 14.5 0.00 0.10 0.10 76 1018.3
20211204170011 20 123 14.5 14.5 0.00 0.10 0.10 76 1018.4
20211204165541 20 124 9.7 11.3 0.00 0.10 0.10 76 1018.4
20211204165012 20 145 9.7 11.3 0.00 0.10 0.10 74 1018.4
20211204164511 20 164 9.7 11.3 0.00 0.10 0.10 74 1018.5
20211204164011 20 155 8.0 11.3 0.00 0.10 0.10 74 1018.4
20211204163511 20 118 8.0 11.3 0.00 0.10 0.10 75 1018.4
20211204163011 20 119 11.3 11.3 0.00 0.10 0.10 75 1018.4
20211204162511 20 140 6.4 11.3 0.00 0.10 0.10 76 1018.3
20211204162011 19 156 4.8 11.3 0.00 0.10 0.10 77 1018.3
20211204161511 18 204 4.8 12.9 0.00 0.10 0.10 79 1018.3
20211204161012 18 165 9.7 14.5 0.00 0.10 0.10 79 1018.2
20211204160511 18 165 11.3 16.1 0.00 0.10 0.10 79 1018.2
20211204160011 18 160 16.1 16.1 0.00 0.10 0.10 77 1018.2
20211204155511 18 173 12.9 16.1 0.00 0.10 0.10 76 1018.2
20211204155011 18 163 16.1 17.7 0.00 0.10 0.10 76 1018.2
20211204154511 18 178 11.3 17.7 0.00 0.10 0.10 77 1018.2
20211204154013 18 174 14.5 17.7 0.00 0.10 0.10 77 1018.2
20211204153512 18 179 11.3 14.5 0.00 0.10 0.10 77 1018.2
20211204153012 18 173 11.3 12.9 0.00 0.10 0.10 79 1017.9
20211204152511 17 137 8.0 11.3 0.00 0.10 0.10 81 1018.0
20211204152011 17 126 8.0 8.0 0.00 0.10 0.10 83 1017.9
20211204151511 17 144 4.8 8.0 0.00 0.10 0.10 85 1017.9
20211204151012 16 157 4.8 8.0 0.00 0.10 0.10 88 1018.0
20211204150512 16 117 1.6 11.3 0.00 0.10 0.10 88 1017.9
20211204150012 16 77 6.4 11.3 0.00 0.10 0.10 87 1017.9
20211204145512 16 61 9.7 9.7 0.00 0.10 0.10 86 1017.8
20211204145011 16 86 6.4 8.0 0.00 0.10 0.10 87 1017.8
20211204144511 16 109 4.8 12.9 0.00 0.10 0.10 87 1017.7
20211204144012 15 86 6.4 12.9 0.00 0.10 0.10 87 1017.7
20211204143511 15 79 11.3 11.3 0.00 0.10 0.10 86 1017.7
20211204143012 16 38 6.4 8.0 0.00 0.10 0.10 85 1017.7
20211204142511 15 80 4.8 6.4 0.00 0.10 0.10 86 1017.6
20211204142011 15 99 3.2 6.4 0.00 0.10 0.10 86 1017.6
20211204141511 15 102 6.4 6.4 0.00 0.10 0.10 85 1017.5
20211204141012 15 71 6.4 6.4 0.00 0.10 0.10 84 1017.4
20211204140541 15 49 4.8 6.4 0.00 0.10 0.10 82 1017.4
20211204140012 16 110 4.8 6.4 0.00 0.10 0.10 83 1017.3
20211204135512 15 112 4.8 8.0 0.00 0.10 0.10 83 1017.2
20211204135011 15 72 3.2 8.0 0.00 0.10 0.10 83 1017.2
20211204134511 15 28 6.4 6.4 0.00 0.10 0.10 81 1017.1
20211204134012 16 20 4.8 9.7 0.00 0.10 0.10 83 1017.0
20211204133511 15 16 6.4 9.7 0.00 0.10 0.10 85 1016.9
20211204133012 15 16 8.0 8.0 0.00 0.10 0.10 80 1016.9
20211204132512 16 232 3.2 6.4 0.00 0.10 0.10 83 1016.7
20211204132011 16 226 4.8 8.0 0.00 0.10 0.10 82 1016.6
20211204131512 16 221 6.4 8.0 0.00 0.10 0.10 82 1016.5
20211204131012 16 212 6.4 8.0 0.00 0.10 0.10 81 1016.5
20211204130512 16 199 6.4 6.4 0.00 0.10 0.10 80 1016.5
20211204130012 16 188 4.8 4.8 0.00 0.10 0.10 79 1016.5
20211204125512 16 189 4.8 4.8 0.00 0.10 0.10 78 1016.5
20211204125012 16 238 4.8 9.7 0.00 0.10 0.10 77 1016.5
20211204124512 17 253 4.8 9.7 0.00 0.10 0.10 75 1016.5
20211204124011 17 197 9.7 9.7 0.00 0.10 0.10 74 1016.5
20211204123512 17 180 8.0 8.0 0.00 0.10 0.10 74 1016.5
20211204123012 17 154 4.8 6.4 0.00 0.10 0.10 73 1016.5
20211204122512 17 87 1.6 6.4 0.00 0.10 0.10 74 1016.5
20211204122011 17 66 6.4 6.4 0.00 0.10 0.10 75 1016.5
20211204121512 17 62 3.2 8.0 0.00 0.10 0.10 73 1016.5
20211204121011 17 38 4.8 8.0 0.00 0.10 0.10 73 1016.5
20211204120512 18 71 8.0 11.3 0.00 0.10 0.10 68 1016.5
20211204120012 19 158 8.0 12.9 0.00 0.10 0.10 61 1016.4
20211204115512 20 177 9.7 12.9 0.00 0.10 0.10 58 1016.4
20211204115011 20 192 9.7 11.3 0.00 0.10 0.10 57 1016.3
20211204114512 20 198 9.7 12.9 0.00 0.10 0.10 57 1016.2
20211204114011 20 190 11.3 14.5 0.00 0.10 0.10 58 1016.1
20211204113512 20 203 12.9 14.5 0.00 0.10 0.10 57 1016.2
20211204113012 20 193 12.9 16.1 0.00 0.10 0.10 60 1016.1